Hauptseite
METAR-TAF:

METAR-TAF

Flughäfen :

Militärflugplatz Emmen

Emmen, Schweiz

Breite: 47-05-32N, Länge: 8-18-16E, Höhe: 426 m

Beobachtung

Neuester Wetterbericht von vor 16 Minuten, um 00:20 UTC
Wind 3 kt aus Ost
Temperatur 8°C
Luftfeuchtigkeit 93%
Luftdruck 1027 hPa
Sichtweite: 6000 m
Leicht bewölkt in der Höhe von 500 ft
Geschlossene Wolkendecke in der Höhe von 900 ft

METAR: LSME 150020Z AUTO 08003KT 6000NDV FEW005 OVC009 08/07 Q1027 RMK

Zeit: 01:36 (00:36 UTC)


TAF: fehlend

Wetterbeobachtungen und Prognosen von mehr als 4000 Flughäfen (METAR und TAF Bericht).

Die verfügbaren Stationen werden durch gelbe und rote Markierungen auf der Karte dargestellt.

Führen Sie die Maus auf sie, um den Namen der Station zu sehen.

Darauf klicken, um die Beobachtung von Wetterbeobachtungen und Prognosen zu sehen.

Um die Karte zu ändern : klicken Sie auf den grünen Tasten mit einem schwarzen Kreuz Zum Vergrößern, auf den grünen Button mit einem Gedankenstrich zu verkleinern, oder auf die grünen Pfeile für benachbarte Karten.


METAR-TAF: